Year,Month,Day,Hour,Minute,Value (Times are PST for temperature in C)
2018,02,20,10,49,2.40
2018,02,20,10,50,2.50
2018,02,20,10,51,2.50
2018,02,20,10,52,2.60
2018,02,20,10,53,2.60
2018,02,20,10,54,2.60
2018,02,20,10,55,2.70
2018,02,20,10,56,2.70
2018,02,20,10,57,2.70
2018,02,20,10,58,2.70
2018,02,20,10,59,2.80
2018,02,20,11,00,2.80
2018,02,20,11,01,2.80
2018,02,20,11,02,2.80
2018,02,20,11,03,2.80
2018,02,20,11,04,2.80
2018,02,20,11,05,2.90
2018,02,20,11,06,2.90
2018,02,20,11,07,2.90
2018,02,20,11,08,2.90
2018,02,20,11,09,3.00
2018,02,20,11,10,3.00
2018,02,20,11,11,3.10
2018,02,20,11,12,3.10
2018,02,20,11,13,3.10
2018,02,20,11,14,3.10
2018,02,20,11,15,3.10
2018,02,20,11,16,3.10
2018,02,20,11,17,3.20
2018,02,20,11,18,3.20
2018,02,20,11,19,3.20
2018,02,20,11,20,3.10
2018,02,20,11,21,3.10
2018,02,20,11,22,3.10
2018,02,20,11,23,3.10
2018,02,20,11,24,3.10
2018,02,20,11,25,3.00
2018,02,20,11,26,3.00
2018,02,20,11,27,3.10
2018,02,20,11,28,3.10
2018,02,20,11,29,3.10
2018,02,20,11,30,3.10
2018,02,20,11,31,3.10
2018,02,20,11,32,3.10
2018,02,20,11,33,3.10
2018,02,20,11,34,3.10
2018,02,20,11,35,3.10
2018,02,20,11,36,3.20
2018,02,20,11,37,3.20
2018,02,20,11,38,3.20
2018,02,20,11,39,3.10
2018,02,20,11,40,3.10
2018,02,20,11,41,3.10
2018,02,20,11,42,3.10
2018,02,20,11,43,3.10
2018,02,20,11,44,3.10
2018,02,20,11,45,3.10
2018,02,20,11,46,3.10
2018,02,20,11,47,3.10
2018,02,20,11,48,3.10
2018,02,20,11,49,3.10
2018,02,20,11,50,3.10
2018,02,20,11,51,3.10
2018,02,20,11,52,3.20
2018,02,20,11,53,3.20
2018,02,20,11,54,3.20
2018,02,20,11,55,3.20
2018,02,20,11,56,3.20
2018,02,20,11,57,3.30
2018,02,20,11,58,3.30
2018,02,20,11,59,3.30
2018,02,20,12,00,3.30
2018,02,20,12,01,3.30
2018,02,20,12,02,3.30
2018,02,20,12,03,3.20
2018,02,20,12,04,3.20
2018,02,20,12,05,3.20
2018,02,20,12,06,3.20
2018,02,20,12,07,3.20
2018,02,20,12,08,3.10
2018,02,20,12,09,3.10
2018,02,20,12,10,3.10
2018,02,20,12,11,3.20
2018,02,20,12,12,3.20
2018,02,20,12,13,3.20
2018,02,20,12,14,3.20
2018,02,20,12,15,3.20
2018,02,20,12,16,3.20
2018,02,20,12,17,3.20
2018,02,20,12,18,3.20
2018,02,20,12,19,3.20
2018,02,20,12,20,3.20
2018,02,20,12,21,3.20
2018,02,20,12,22,3.20
2018,02,20,12,23,3.20
2018,02,20,12,24,3.30
2018,02,20,12,25,3.30
2018,02,20,12,26,3.30
2018,02,20,12,27,3.30
2018,02,20,12,28,3.30
2018,02,20,12,29,3.40
2018,02,20,12,30,3.40
2018,02,20,12,31,3.40
2018,02,20,12,32,3.50
2018,02,20,12,33,3.50
2018,02,20,12,34,3.50
2018,02,20,12,35,3.60
2018,02,20,12,36,3.60
2018,02,20,12,37,3.70
2018,02,20,12,38,3.70
2018,02,20,12,39,3.70
2018,02,20,12,40,3.80
2018,02,20,12,41,3.80
2018,02,20,12,42,3.90
2018,02,20,12,43,4.00
2018,02,20,12,44,4.00
2018,02,20,12,45,4.10
2018,02,20,12,46,4.20
2018,02,20,12,47,4.20
2018,02,20,12,48,4.30
2018,02,20,12,49,4.30
2018,02,20,12,50,4.40
2018,02,20,12,51,4.30
2018,02,20,12,52,4.30
2018,02,20,12,53,4.30
2018,02,20,12,54,4.30
2018,02,20,12,55,4.40
2018,02,20,12,56,4.40
2018,02,20,12,57,4.50
2018,02,20,12,58,4.60
2018,02,20,12,59,4.60
2018,02,20,13,00,4.60
2018,02,20,13,01,4.70
2018,02,20,13,02,4.70
2018,02,20,13,03,4.60
2018,02,20,13,04,4.60
2018,02,20,13,05,4.60
2018,02,20,13,06,4.70
2018,02,20,13,07,4.70
2018,02,20,13,08,4.80
2018,02,20,13,09,4.80
2018,02,20,13,10,4.80
2018,02,20,13,11,4.80
2018,02,20,13,12,4.80
2018,02,20,13,13,4.80
2018,02,20,13,14,4.80
2018,02,20,13,15,4.80
2018,02,20,13,16,4.80
2018,02,20,13,17,4.80
2018,02,20,13,18,4.80
2018,02,20,13,19,4.70
2018,02,20,13,20,4.70
2018,02,20,13,21,4.70
2018,02,20,13,22,4.60
2018,02,20,13,23,4.60
2018,02,20,13,24,4.60
2018,02,20,13,25,4.60
2018,02,20,13,26,4.60
2018,02,20,13,27,4.60
2018,02,20,13,28,4.60
2018,02,20,13,29,4.60
2018,02,20,13,30,4.70
2018,02,20,13,31,4.70
2018,02,20,13,32,4.80
2018,02,20,13,33,4.80
2018,02,20,13,34,4.80
2018,02,20,13,35,4.80
2018,02,20,13,36,4.80
2018,02,20,13,37,4.80
2018,02,20,13,38,4.90
2018,02,20,13,39,4.90
2018,02,20,13,40,4.90
2018,02,20,13,41,5.00
2018,02,20,13,42,5.00
2018,02,20,13,43,5.10
2018,02,20,13,44,5.10
2018,02,20,13,45,5.10
2018,02,20,13,46,5.20
2018,02,20,13,47,5.20
2018,02,20,13,48,5.30
2018,02,20,13,49,5.30
2018,02,20,13,50,5.40
2018,02,20,13,51,5.40
2018,02,20,13,52,5.50
2018,02,20,13,53,5.50
2018,02,20,13,54,5.50
2018,02,20,13,55,5.50
2018,02,20,13,56,5.50
2018,02,20,13,57,5.40
2018,02,20,13,58,5.30
2018,02,20,13,59,5.30
2018,02,20,14,00,5.20
2018,02,20,14,01,5.10
2018,02,20,14,02,5.10
2018,02,20,14,03,5.00
2018,02,20,14,04,5.00
2018,02,20,14,05,5.00
2018,02,20,14,06,4.90
2018,02,20,14,07,4.90
2018,02,20,14,08,4.90
2018,02,20,14,09,4.80
2018,02,20,14,10,4.80
2018,02,20,14,11,4.70
2018,02,20,14,12,4.70
2018,02,20,14,13,4.70
2018,02,20,14,14,4.70
2018,02,20,14,15,4.70
2018,02,20,14,16,4.70
2018,02,20,14,17,4.70
2018,02,20,14,18,4.70
2018,02,20,14,19,4.70
2018,02,20,14,20,4.70
2018,02,20,14,21,4.70
2018,02,20,14,22,4.70
2018,02,20,14,23,4.70
2018,02,20,14,24,4.70
2018,02,20,14,25,4.70
2018,02,20,14,26,4.70
2018,02,20,14,27,4.70
2018,02,20,14,28,4.60
2018,02,20,14,29,4.60
2018,02,20,14,30,4.60
2018,02,20,14,31,4.60
2018,02,20,14,32,4.60
2018,02,20,14,33,4.50
2018,02,20,14,34,4.50
2018,02,20,14,35,4.50
2018,02,20,14,36,4.50
2018,02,20,14,37,4.50
2018,02,20,14,38,4.50
2018,02,20,14,39,4.50
2018,02,20,14,40,4.60
2018,02,20,14,41,4.60
2018,02,20,14,42,4.50
2018,02,20,14,43,4.50
2018,02,20,14,44,4.50
2018,02,20,14,45,4.40
2018,02,20,14,46,4.40
2018,02,20,14,47,4.40
2018,02,20,14,48,4.30
2018,02,20,14,49,4.30
2018,02,20,14,50,4.30
2018,02,20,14,51,4.30
2018,02,20,14,52,4.20
2018,02,20,14,53,4.20
2018,02,20,14,54,4.20
2018,02,20,14,55,4.20
2018,02,20,14,56,4.20
2018,02,20,14,57,4.20
2018,02,20,14,58,4.10
2018,02,20,14,59,4.10
2018,02,20,15,00,4.00
2018,02,20,15,01,4.00
2018,02,20,15,02,4.00
2018,02,20,15,03,4.00
2018,02,20,15,04,4.00
2018,02,20,15,05,4.00
2018,02,20,15,06,4.00
2018,02,20,15,07,4.00
2018,02,20,15,08,4.00
2018,02,20,15,09,4.00
2018,02,20,15,10,4.00
2018,02,20,15,11,4.10
2018,02,20,15,12,4.10
2018,02,20,15,13,4.00
2018,02,20,15,14,4.00
2018,02,20,15,15,3.90
2018,02,20,15,16,3.90
2018,02,20,15,17,3.90
2018,02,20,15,18,3.90
2018,02,20,15,19,3.90
2018,02,20,15,20,4.00
2018,02,20,15,21,4.00
2018,02,20,15,22,4.00
2018,02,20,15,23,4.00
2018,02,20,15,24,3.90
2018,02,20,15,25,3.90
2018,02,20,15,26,3.90
2018,02,20,15,27,4.00
2018,02,20,15,28,4.00
2018,02,20,15,29,4.00
2018,02,20,15,30,4.00
2018,02,20,15,31,4.00
2018,02,20,15,32,4.00
2018,02,20,15,33,4.00
2018,02,20,15,34,4.00
2018,02,20,15,35,4.00
2018,02,20,15,36,4.00
2018,02,20,15,37,3.90
2018,02,20,15,38,3.90
2018,02,20,15,39,3.90
2018,02,20,15,40,3.90
2018,02,20,15,41,3.80
2018,02,20,15,42,3.80
2018,02,20,15,43,3.80
2018,02,20,15,44,3.80
2018,02,20,15,45,3.70
2018,02,20,15,46,3.70
2018,02,20,15,47,3.70
2018,02,20,15,48,3.70
2018,02,20,15,49,3.70
2018,02,20,15,50,3.60
2018,02,20,15,51,3.60
2018,02,20,15,52,3.60
2018,02,20,15,53,3.60
2018,02,20,15,54,3.60
2018,02,20,15,55,3.60
2018,02,20,15,56,3.50
2018,02,20,15,57,3.50
2018,02,20,15,58,3.50
2018,02,20,15,59,3.50
2018,02,20,16,00,3.40
2018,02,20,16,01,3.40
2018,02,20,16,02,3.40
2018,02,20,16,03,3.40
2018,02,20,16,04,3.40
2018,02,20,16,05,3.40
2018,02,20,16,06,3.40
2018,02,20,16,07,3.40
2018,02,20,16,08,3.40
2018,02,20,16,09,3.40
2018,02,20,16,10,3.40
2018,02,20,16,11,3.40
2018,02,20,16,12,3.40
2018,02,20,16,13,3.40
2018,02,20,16,14,3.50
2018,02,20,16,15,3.50
2018,02,20,16,16,3.50
2018,02,20,16,17,3.60
2018,02,20,16,18,3.60
2018,02,20,16,19,3.60
2018,02,20,16,20,3.60
2018,02,20,16,21,3.70
2018,02,20,16,22,3.70
2018,02,20,16,23,3.70
2018,02,20,16,24,3.80
2018,02,20,16,25,3.80
2018,02,20,16,26,3.80
2018,02,20,16,27,3.90
2018,02,20,16,28,3.80
2018,02,20,16,29,3.90
2018,02,20,16,30,3.90
2018,02,20,16,31,3.80
2018,02,20,16,32,3.80
2018,02,20,16,33,3.80
2018,02,20,16,34,3.80
2018,02,20,16,35,3.70
2018,02,20,16,36,3.70
2018,02,20,16,37,3.70
2018,02,20,16,38,3.80
2018,02,20,16,39,3.80
2018,02,20,16,40,3.80
2018,02,20,16,41,3.80
2018,02,20,16,42,3.80
2018,02,20,16,43,3.80
2018,02,20,16,44,3.80
2018,02,20,16,45,3.80
2018,02,20,16,46,3.90
2018,02,20,16,47,3.90
2018,02,20,16,48,3.90
2018,02,20,16,49,3.90
2018,02,20,16,50,3.90
2018,02,20,16,51,3.90
2018,02,20,16,52,3.90
2018,02,20,16,53,3.80
2018,02,20,16,54,3.80
2018,02,20,16,55,3.80
2018,02,20,16,56,3.80
2018,02,20,16,57,3.80
2018,02,20,16,58,3.80
2018,02,20,16,59,3.80
2018,02,20,17,00,3.80
2018,02,20,17,01,3.80
2018,02,20,17,02,3.80
2018,02,20,17,03,3.70
2018,02,20,17,04,3.70
2018,02,20,17,05,3.70
2018,02,20,17,06,3.70
2018,02,20,17,07,3.70
2018,02,20,17,08,3.70
2018,02,20,17,09,3.70
2018,02,20,17,10,3.60
2018,02,20,17,11,3.60
2018,02,20,17,12,3.60
2018,02,20,17,13,3.60
2018,02,20,17,14,3.60
2018,02,20,17,15,3.50
2018,02,20,17,16,3.50
2018,02,20,17,17,3.50
2018,02,20,17,18,3.50
2018,02,20,17,19,3.40
2018,02,20,17,20,3.40
2018,02,20,17,21,3.30
2018,02,20,17,22,3.30
2018,02,20,17,23,3.30
2018,02,20,17,24,3.30
2018,02,20,17,25,3.30
2018,02,20,17,26,3.20
2018,02,20,17,27,3.20
2018,02,20,17,28,3.20
2018,02,20,17,29,3.20
2018,02,20,17,30,3.10
2018,02,20,17,31,3.10
2018,02,20,17,32,3.10
2018,02,20,17,33,3.00
2018,02,20,17,34,3.00
2018,02,20,17,35,3.00
2018,02,20,17,36,2.90
2018,02,20,17,37,2.90
2018,02,20,17,38,2.80
2018,02,20,17,39,2.80
2018,02,20,17,40,2.80
2018,02,20,17,41,2.80
2018,02,20,17,42,2.80
2018,02,20,17,43,2.80
2018,02,20,17,44,2.80
2018,02,20,17,45,2.80
2018,02,20,17,46,2.80
2018,02,20,17,47,2.80
2018,02,20,17,48,2.80
2018,02,20,17,49,2.80
2018,02,20,17,50,2.80
2018,02,20,17,51,2.80
